World > North America > United States > Texas

Shady Grove, Texas Regional Weather

Lat: 31.18N, Lon: 94.75W
Wx Zone: TXZ165Web Search
Shady Grove Weather Warning NWS WEATHER ALERT FOR THE SHADY GROVE, TX AREA - Issued: 606 AM CDT Fri Apr 16 2021 Shady Grove Weather Warning  

Helpful Tip: Type the letters wx in the search engine next time you need to find us.

Feedback


°F Click to change Shady Grove hourly weather to Imperial units.Click to change Shady Grove hourly weather to Metric units. °C
Shady Grove Weather Map
UTC Time: 4/17/2021, 00:30
Your Time:

Shady Grove, TX Regional Weather

Expires:202104170100;;664625
ASUS44 KFWD 170015
RWRTX 
NORTH TEXAS HOURLY WEATHER ROUNDUP
NATIONAL WEATHER SERVICE FORT WORTH TX
700 PM CDT FRI APR 16 2021

NOTE: "FAIR" INDICATES FEW OR NO CLOUDS BELOW 12,000 FEET WITH NO
SIGNIFICANT WEATHER AND/OR OBSTRUCTIONS TO VISIBILITY.


TXZ095>097-106>112-122>126-135>138-148>153-164>167-170100-
EAST TEXAS
  
CITY           SKY/WX    TMP DP  RH WIND       PRES   REMARKS
PARIS          CLOUDY    52  51  97 N7        29.88S FOG              
6HR MIN TEMP:  51; 6HR MAX TEMP:  53;                                

SULPHUR SPRNGS CLOUDY    55  54  97 N6        29.89R                  
6HR MIN TEMP:  54; 6HR MAX TEMP:  55; 6HR PCP:  0.02;                

GILMER         DRIZZLE   54  53  97 NW5       29.85S                  
6HR MIN TEMP:  52; 6HR MAX TEMP:  55; 6HR PCP:  0.18;                

TYLER          CLOUDY    57  55  93 N7        29.84R FOG              
6HR MIN TEMP:  56; 6HR MAX TEMP:  58; 6HR PCP:  0.28;                

LONGVIEW       CLOUDY    56  54  93 N7        29.83R FOG              
6HR MIN TEMP:  54; 6HR MAX TEMP:  57; 6HR PCP:  0.62;                

MARSHALL       CLOUDY    54  52  94 CALM      29.85S                  
6HR MIN TEMP:  52; 6HR MAX TEMP:  55; 6HR PCP:  0.29;                

ATHENS         CLOUDY    57  55  94 N6        29.83S                  
PALESTINE      CLOUDY    57  57 100 N5        29.84R                  
JACKSONVILLE   CLOUDY    56  56 100 N3        29.85R FOG              
HENDERSON      CLOUDY    57  56  96 NW3       29.84S FOG              
6HR MIN TEMP:  54; 6HR MAX TEMP:  57; 6HR PCP:  0.61;                

CENTER         HVY RAIN  61  59  94 CALM      29.84R                  
NACOGDOCHES    LGT RAIN  59  58  96 CALM      29.82R FOG              
6HR MIN TEMP:  56; 6HR MAX TEMP:  59;                                

LUFKIN         LGT RAIN  60  60 100 N3        29.81R                  
6HR MIN TEMP:  59; 6HR MAX TEMP:  64; 6HR PCP:  0.25;                

$$

SUPPLEMENTAL OBSERVATIONS (NWS FORT WORTH AREA)
  
CITY           SKY/WX    TMP DP  RH WIND       PRES   REMARKS
CADDO GRASSLND   N/A     52  50  93 VRB3        N/A                   
LBJ GRASSLAND    N/A     55  52  88 N10         N/A                   
POSSUM KINGDOM   N/A     55  48  76 NW13        N/A                   
GRANBURY         N/A     57  54  88 NW12G23     N/A                   
COMANCHE         N/A     55  50  82 N13G25      N/A                   
MCGREGOR         N/A     61  57  88 N10         N/A                   
TEMPLE           N/A     64  59  82 N9          N/A                   
LAKE LIMESTONE   N/A     61  57  88 N6          N/A                   
PALESTINE        N/A     57  55  94 N6          N/A         

SKY/WX - Weather  TMP - Temperature  DP - Dew Point  RH - Relative Humidity
WIND - Wind Direction/Speed PRES - Barometric Pressure VSB - Visibility
WCI - Wind Chill Index E13G22 Wind - East Wind 13 mph/Gusts of 22 mph